GFSSW_850_rhum_057.txt.gz
RH
6 6 5 4 4 5 6 6 6 6 6 9 9 7 7 7 9 9 3 19 20 20 22 25 29 54 67 73 66 61 61 76 66 59 82 78 68 68 61 80 73 64 65 62 54
6 6 5 5 5 5 5 6 6 5 7 8 9 8 7 8 12 7 3 14 25 20 17 34 44 49 51 54 53 50 57 56 43 45 67 83 71 57 60 69 68 65 67 63 57
8 7 6 6 6 6 6 7 7 6 6 8 8 8 8 12 29 32 7 16 19 21 14 40 37 41 47 47 44 39 51 40 38 42 55 78 96 54 55 62 59 65 66 62 60
8 7 6 6 6 6 7 9 9 9 7 7 8 8 10 15 42 31 25 24 22 15 13 42 45 35 43 41 37 42 32 32 32 52 76 85 93 73 62 79 72 69 65 61 60
8 7 7 6 6 7 8 10 10 10 8 7 8 9 16 39 18 20 16 19 11 14 12 44 48 38 39 33 30 32 28 25 29 47 66 82 66 70 69 59 70 70 65 60 58
7 7 6 6 6 7 9 13 11 10 9 8 10 16 16 52 17 16 17 30 16 16 11 42 46 36 30 29 28 23 22 20 20 47 64 59 68 65 68 58 76 67 64 60 58
9 7 6 6 6 7 9 12 13 11 10 10 17 17 42 36 16 14 16 30 28 17 12 42 45 43 26 26 21 17 19 16 18 28 48 58 76 72 62 68 69 66 62 60 57
9 8 8 7 7 8 9 12 13 11 15 18 24 33 42 16 13 13 15 23 30 30 16 31 39 38 27 21 20 18 16 22 18 26 31 37 74 80 72 79 64 67 64 62 57
15 16 14 12 9 9 10 14 12 13 16 21 28 52 42 15 12 12 12 19 26 30 21 21 25 28 24 24 30 26 24 19 17 15 33 41 81 86 78 75 62 66 66 63 58
28 27 24 20 15 10 11 20 19 10 24 21 30 46 26 15 10 12 12 14 23 22 22 21 27 30 28 28 39 34 21 17 16 16 33 44 84 80 81 73 67 60 61 60 59
25 20 18 19 18 12 15 23 32 32 19 35 28 20 13 10 9 12 16 17 22 24 33 28 38 38 28 24 21 20 20 17 12 10 28 46 78 86 82 71 76 73 60 59 56
23 19 16 13 16 10 21 23 19 19 19 18 21 17 9 9 9 13 19 14 22 30 28 31 39 29 22 21 20 19 20 19 15 10 14 47 63 66 74 70 82 86 60 56 53
26 20 14 12 15 20 23 22 20 20 20 16 11 11 8 8 8 12 18 19 22 27 30 30 24 21 21 22 17 18 21 19 17 12 23 54 66 65 57 58 78 82 59 54 46
24 26 15 12 22 30 25 20 18 18 28 16 10 8 8 8 8 9 9 10 15 24 21 24 19 17 20 20 17 21 14 13 12 14 21 44 76 70 63 71 76 74 66 60 51
25 29 14 17 16 24 20 18 19 18 37 11 9 9 8 8 9 9 9 9 13 14 16 20 17 20 20 15 12 15 13 13 14 15 16 14 19 65 59 87 76 76 54 58 54
27 30 13 33 35 29 25 19 19 27 31 12 10 10 9 8 8 10 10 10 10 12 12 13 10 14 17 14 12 11 12 14 15 19 24 16 16 24 68 72 76 61 47 43 45
26 24 12 29 32 23 20 20 32 30 11 12 11 9 9 10 9 9 10 13 14 15 17 15 14 12 11 15 12 12 16 28 30 27 27 15 15 15 53 53 63 61 60 54 53
25 29 30 16 24 24 21 28 36 17 14 8 8 8 9 10 10 11 10 13 12 11 14 16 16 9 10 16 20 16 17 31 34 33 24 17 21 18 9 44 52 51 59 62 53
31 33 33 25 22 21 22 37 27 18 15 14 10 10 10 8 9 11 12 14 12 18 19 24 19 13 10 11 16 20 25 14 21 19 26 20 16 13 11 27 47 47 49 49 50
36 33 32 28 25 21 29 31 25 20 18 18 22 18 22 17 14 15 14 12 15 16 17 22 27 16 11 9 14 18 16 26 23 32 36 26 24 24 16 11 41 48 50 65 50
39 48 30 31 28 26 37 33 26 20 21 22 24 25 26 26 25 26 24 20 18 17 17 20 22 22 14 14 14 17 21 20 24 32 37 32 25 16 19 24 40 45 46 57 41
48 46 29 30 34 30 36 27 23 22 22 22 22 25 32 30 30 28 27 24 18 19 26 24 26 31 21 14 12 13 15 18 28 30 34 39 34 17 21 30 30 37 38 57 43
63 37 26 27 38 34 26 25 25 25 28 28 27 26 28 34 40 34 31 25 25 23 41 30 37 41 29 16 15 18 14 12 13 13 16 23 29 26 24 25 28 32 34 49 71
64 43 32 30 29 34 36 35 36 31 31 28 30 32 37 41 33 36 33 26 33 30 28 25 32 38 46 38 29 29 23 19 18 16 17 17 17 11 26 26 23 28 26 39 68
48 36 36 44 38 36 34 37 34 38 32 32 35 34 40 47 42 39 34 36 34 34 34 35 42 38 32 27 25 26 24 21 22 22 24 16 16 27 24 23 22 20 20 23 27
50 54 38 36 32 35 44 46 40 43 44 40 46 41 42 47 49 52 43 42 42 35 42 40 57 38 40 29 28 31 28 26 24 19 17 17 14 12 13 12 14 13 13 15 16
54 50 42 35 36 42 44 42 40 44 43 40 46 54 51 44 43 41 39 36 34 40 49 56 74 77 65 41 41 49 30 28 26 22 18 20 19 16 20 19 16 16 18 19 17

GFSSW_850_rhum_060.txt.gz
RH
8 7 6 5 5 6 6 6 6 6 5 6 8 8 7 6 6 7 5 9 17 20 22 22 17 42 83 81 81 72 86 80 62 58 77 88 81 75 71 73 67 67 58 60 78
8 7 6 6 5 6 6 7 8 8 6 5 8 8 8 7 7 8 5 4 18 21 25 26 19 56 60 74 73 74 86 72 50 58 70 78 82 62 69 72 68 72 62 68 77
7 7 6 6 6 6 7 8 10 10 8 7 7 8 8 8 13 26 11 4 20 21 18 25 26 53 51 55 63 53 70 51 45 61 59 67 71 78 60 74 67 70 60 65 71
13 8 6 6 6 5 6 8 10 10 10 8 7 8 8 11 37 27 19 16 16 22 22 31 36 44 46 54 50 58 44 40 40 63 72 81 73 76 67 63 67 63 53 63 69
19 13 9 6 6 6 6 8 11 11 10 10 9 9 14 23 11 20 16 18 24 23 18 23 35 47 44 45 47 43 39 39 36 71 64 52 77 70 70 78 67 68 62 62 65
18 14 10 7 6 6 7 9 11 12 10 11 10 17 18 51 17 16 16 22 20 16 18 17 45 44 44 38 40 32 30 26 62 75 82 81 72 76 66 81 76 74 64 63 63
16 14 12 10 8 7 7 9 12 13 11 13 19 19 36 15 16 15 14 17 31 10 14 18 41 45 46 38 31 30 29 19 38 72 74 66 79 72 64 77 79 74 63 63 61
22 22 18 16 12 10 8 10 13 14 13 18 28 37 26 22 18 21 15 17 30 32 14 22 38 42 41 41 28 25 22 22 25 64 63 50 75 75 69 74 76 67 64 61 60
25 21 18 17 17 14 10 10 16 15 15 21 29 62 36 25 12 11 13 15 20 32 25 13 24 25 31 32 34 34 36 26 19 26 67 65 95 76 68 73 72 66 64 61 60
23 17 15 13 15 16 10 15 20 22 14 29 33 49 20 15 11 11 11 15 30 30 30 25 21 30 39 39 47 37 34 23 20 14 48 68 85 84 82 76 70 66 63 61 60
24 19 16 12 12 16 10 22 27 34 23 22 26 18 16 11 9 12 14 13 23 25 31 26 42 51 43 33 28 26 27 27 21 17 20 68 86 88 85 79 71 71 66 61 64
24 23 20 11 12 14 13 23 21 20 21 18 18 20 20 19 9 11 16 16 25 34 31 37 49 38 30 26 26 27 29 27 21 16 21 84 92 86 81 74 70 70 69 64 63
20 23 24 9 16 19 22 21 19 20 23 19 13 14 15 9 8 12 18 16 25 30 33 44 34 28 30 31 29 30 31 27 24 18 57 72 90 92 83 74 73 73 70 68 60
18 25 23 9 23 25 23 20 20 19 32 23 16 11 11 8 8 9 13 11 16 29 29 37 28 25 28 31 26 34 21 18 19 17 31 52 85 84 87 85 88 68 68 66 68
24 27 21 15 21 26 23 19 20 18 36 14 10 8 8 8 9 10 9 8 12 15 16 26 22 27 27 23 22 26 18 18 15 17 18 18 22 63 75 83 92 70 60 57 62
28 29 15 29 32 23 20 19 20 31 38 13 10 10 10 9 9 10 10 10 10 11 13 15 11 13 19 18 19 16 16 17 21 23 28 20 19 74 79 82 83 80 80 79 66
30 26 18 24 25 22 21 21 38 35 16 14 14 10 11 11 10 11 11 13 14 14 14 14 13 12 12 15 17 15 23 31 28 28 30 21 20 19 59 49 70 75 74 68 60
25 26 25 22 21 21 22 32 40 21 23 15 10 10 12 11 12 11 11 15 12 13 16 17 17 10 12 15 21 18 22 32 31 34 31 21 23 17 33 44 52 62 60 53 54
27 30 26 23 22 22 23 45 36 28 22 23 16 18 26 21 13 12 14 23 20 21 21 27 22 16 12 12 15 21 25 20 26 26 30 27 22 17 24 24 57 54 50 50 46
32 31 30 31 28 23 35 52 29 23 22 24 32 28 35 31 30 29 24 23 21 20 20 22 23 18 14 13 16 19 19 26 35 33 32 32 26 28 37 45 50 58 56 50 54
40 36 30 29 28 28 47 40 28 26 24 27 34 38 38 38 32 34 32 26 22 22 24 29 27 25 16 20 19 19 24 26 30 39 44 39 31 26 40 38 42 54 53 52 64
42 47 28 30 38 45 42 30 27 32 28 31 29 35 38 39 40 39 40 35 27 28 38 31 34 38 25 21 16 16 28 28 35 26 39 45 36 26 30 31 27 34 48 58 64
49 46 30 26 53 55 36 34 31 35 36 34 40 38 39 43 43 40 36 34 32 36 40 32 43 47 28 28 30 30 28 28 28 23 20 22 22 23 26 29 26 27 56 62 63
45 50 34 33 34 43 44 41 40 33 37 34 37 37 43 48 43 44 42 32 32 39 38 29 42 44 51 41 33 35 29 28 29 31 28 22 19 25 21 20 18 23 38 71 83
43 44 42 54 48 45 43 44 50 53 43 43 50 50 50 53 57 57 49 46 35 40 39 43 45 40 38 32 31 32 32 30 35 32 29 24 22 17 19 19 15 17 17 33 53
46 48 36 40 39 45 55 53 51 52 51 53 60 53 53 61 58 64 56 54 48 42 50 59 64 63 58 41 41 43 38 35 30 29 30 28 23 20 20 20 20 20 23 40 46
53 56 50 46 52 58 54 49 53 49 45 46 51 57 60 57 51 50 49 46 44 44 48 56 71 79 75 57 52 52 39 37 35 31 29 38 32 25 32 29 27 43 47 53 44

GFSSW_850_rhum_063.txt.gz
RH
8 7 7 7 6 6 6 7 8 7 8 6 6 8 8 7 6 6 5 3 19 17 21 31 28 26 75 82 85 78 86 88 67 65 81 78 84 81 79 70 56 71 64 78 79
16 11 7 6 6 6 6 7 9 9 8 8 7 7 8 7 7 6 6 4 19 20 23 24 23 62 84 83 78 80 94 85 59 60 72 80 75 83 73 69 63 64 61 84 93
28 21 15 9 6 6 6 7 10 10 9 9 8 7 7 7 9 27 17 3 18 21 24 22 26 62 58 59 77 69 79 58 49 59 67 74 74 70 65 71 70 66 78 93 94
34 27 22 14 9 6 6 7 10 11 11 9 9 8 8 10 25 21 8 4 20 20 23 29 41 53 51 58 55 65 54 52 43 58 62 70 70 73 68 63 65 56 69 89 91
26 23 21 17 12 9 7 8 9 12 12 11 10 9 10 19 7 20 17 15 20 23 21 31 42 46 52 51 50 57 49 43 38 39 50 62 65 69 75 72 66 60 78 86 88
19 18 18 16 13 11 8 9 10 12 14 12 11 12 17 32 19 17 16 20 21 21 22 26 37 46 46 42 45 40 40 38 37 51 56 62 73 67 78 73 75 64 71 76 81
25 24 21 18 16 14 10 10 10 13 15 14 17 19 18 10 16 17 16 19 26 20 19 18 43 41 48 48 41 36 43 34 72 70 73 68 76 73 74 84 82 68 66 70 76
25 21 16 14 14 15 13 13 10 14 16 17 28 31 20 24 23 20 19 18 29 32 13 15 35 42 40 43 33 28 26 26 66 74 68 73 68 80 80 83 90 79 65 67 68
24 18 16 15 12 13 14 13 11 18 16 21 28 52 33 27 23 15 16 17 20 36 25 18 16 31 30 40 42 37 38 30 42 74 71 78 79 77 79 81 85 78 66 65 64
22 19 21 19 12 11 14 15 28 22 18 28 35 50 16 23 13 12 12 14 16 34 36 27 22 31 44 48 60 38 35 29 24 66 71 82 84 78 77 78 79 73 67 63 63
18 18 21 23 11 11 13 22 30 34 29 21 21 23 20 18 12 12 12 15 28 37 40 26 34 45 41 41 36 29 30 31 26 21 20 79 77 86 78 80 75 75 70 63 62
15 16 21 20 10 13 20 23 26 27 27 20 19 20 18 19 19 11 13 15 29 34 32 43 46 39 35 33 31 30 32 33 26 20 24 39 81 86 85 78 74 73 71 65 63
17 17 22 12 20 25 25 26 23 21 26 21 19 16 15 15 13 10 15 16 29 34 37 44 36 32 35 36 34 32 36 33 30 24 66 84 87 94 89 78 74 74 71 68 63
31 24 22 11 26 24 25 20 20 19 34 23 19 14 13 13 8 8 13 15 18 33 34 37 30 32 32 36 36 42 30 27 25 22 25 60 77 88 90 90 80 79 75 71 64
36 27 24 13 24 25 22 19 20 19 35 17 13 11 11 8 9 10 9 10 16 16 29 34 24 36 34 28 29 34 26 25 22 20 20 23 38 57 95 94 84 84 80 75 69
34 25 18 30 25 22 21 19 20 31 30 14 10 10 10 9 10 10 10 9 10 12 13 14 12 16 24 22 24 21 22 20 25 26 28 22 23 57 90 80 74 76 80 77 72
25 26 14 28 23 18 20 21 34 36 20 21 13 11 11 11 10 11 12 13 15 17 14 12 12 12 13 16 16 20 25 33 29 32 30 23 23 22 61 68 61 68 73 68 66
26 25 22 19 21 22 22 32 44 28 28 22 16 14 18 12 12 13 16 27 20 16 18 18 16 11 13 14 19 22 24 34 32 36 29 24 23 21 34 39 54 58 59 63 61
28 30 30 27 22 23 24 46 41 35 27 27 25 33 34 28 21 17 28 35 25 25 20 26 21 17 13 13 16 21 25 21 35 31 28 28 22 21 39 42 43 59 69 69 69
31 30 33 32 29 27 48 50 34 32 29 29 37 36 46 37 32 32 35 30 32 26 22 25 24 20 17 15 15 18 21 28 34 35 31 31 31 48 46 40 41 64 65 69 69
34 32 31 29 30 29 56 38 34 32 28 35 39 43 41 44 42 39 47 31 34 29 29 31 27 22 18 23 22 29 34 34 36 37 42 40 46 33 45 38 38 50 59 63 62
35 46 31 30 36 49 51 39 32 36 32 37 38 43 42 46 49 45 51 45 37 33 42 33 40 34 28 27 22 26 32 36 41 33 42 45 47 25 35 30 27 72 54 55 54
37 35 30 28 50 57 40 38 38 42 42 38 42 40 42 46 50 48 44 33 41 43 55 34 45 40 27 26 33 35 32 32 36 32 33 28 32 20 22 20 24 62 83 85 77
35 52 35 34 39 45 45 52 48 42 45 45 50 44 46 54 54 54 48 38 38 44 47 34 51 46 50 43 37 37 34 33 38 47 41 28 30 23 25 25 22 34 52 90 84
38 49 48 64 52 51 50 48 54 57 46 49 55 57 54 73 64 64 57 50 38 44 46 45 61 55 42 39 38 36 41 37 35 34 40 33 32 24 28 27 31 44 52 51 47
50 50 41 47 44 52 63 55 55 54 50 55 62 55 60 67 63 67 59 56 52 47 50 60 69 60 60 55 48 44 38 36 36 32 33 34 32 29 33 34 50 51 47 47 48
52 51 42 53 58 60 58 51 52 50 50 51 52 59 60 56 54 53 54 50 48 50 54 62 71 75 72 70 52 50 45 43 38 33 34 41 43 58 58 54 63 60 52 53 44

GFSSW_850_rhum_069.txt.gz
RH
51 44 38 34 28 21 11 6 6 6 8 8 6 5 5 6 7 7 5 4 15 22 31 27 26 63 87 87 90 86 73 69 60 58 78 80 82 86 85 74 66 71 79 78 95
47 39 34 30 28 25 20 11 7 6 8 8 8 7 5 5 6 5 5 4 16 21 31 28 36 86 83 81 80 78 79 61 52 53 62 74 89 89 72 66 83 87 92 90 94
40 35 29 24 21 21 21 17 9 7 8 10 9 7 6 5 7 24 24 4 14 18 30 28 25 74 73 79 73 69 68 55 50 54 62 65 72 83 65 68 79 88 96 92 89
34 30 26 21 18 17 17 17 13 9 8 10 10 8 7 6 12 26 10 8 15 17 26 29 48 50 63 66 68 72 57 56 51 56 59 60 69 68 64 68 69 85 84 86 84
27 23 20 17 14 13 14 15 14 11 9 10 11 10 8 10 6 17 13 6 20 21 30 40 44 49 43 56 56 62 54 48 46 46 50 64 62 62 66 73 79 86 88 84 83
22 19 18 14 14 15 12 13 13 11 11 11 12 12 10 14 13 15 8 18 23 29 28 36 44 50 46 54 49 46 43 39 36 36 45 53 62 64 71 78 86 86 85 83 87
19 17 16 18 20 17 12 12 13 12 11 12 13 16 14 12 27 17 10 23 26 29 27 32 49 46 49 44 44 41 37 24 48 51 56 60 67 63 80 87 89 87 83 82 90
26 17 15 19 21 19 12 11 13 12 11 16 15 23 18 15 28 20 19 24 28 25 27 30 48 45 44 44 35 32 25 31 52 56 63 58 62 62 83 89 94 94 83 84 86
35 27 16 17 22 18 11 13 17 16 18 16 22 30 32 23 32 23 23 25 26 28 25 27 38 38 37 42 42 29 36 29 28 60 61 56 56 77 89 86 88 89 77 81 83
37 35 22 17 22 11 13 28 29 24 21 23 29 40 28 32 31 28 27 29 30 30 28 25 26 34 36 42 45 39 31 25 31 51 59 56 54 72 81 84 79 91 76 76 76
37 36 32 20 19 15 19 31 30 38 32 28 20 21 20 22 24 33 30 36 35 28 26 24 30 36 40 40 33 30 28 28 25 31 32 23 25 48 74 80 76 79 77 72 71
37 35 31 22 18 29 27 28 26 28 30 22 23 23 17 19 19 31 34 30 35 28 28 24 26 28 34 36 34 34 32 30 24 22 24 24 29 65 62 70 77 70 69 68 70
36 32 26 20 24 26 24 24 23 25 31 21 21 20 18 18 16 25 33 31 31 36 27 22 19 25 33 35 37 34 34 31 26 23 36 54 54 67 71 73 77 78 69 67 66
28 25 22 18 28 26 22 22 21 22 20 17 19 18 17 18 10 15 22 25 30 35 31 27 23 30 37 37 33 39 28 27 27 26 22 37 27 57 67 73 75 74 75 67 67
27 20 15 24 25 23 23 21 21 22 27 16 15 16 16 10 10 14 17 17 24 30 30 30 33 30 38 35 31 36 27 27 26 26 22 26 30 40 63 70 75 75 74 67 66
25 25 26 25 23 22 22 22 20 25 30 19 12 12 11 10 11 12 11 12 14 20 24 22 19 28 31 26 25 25 22 21 21 21 25 19 26 27 39 44 38 58 71 71 67
28 28 24 22 25 23 23 22 26 34 23 25 20 11 13 14 15 13 19 21 16 22 29 15 14 13 17 22 25 24 24 30 30 29 26 21 22 38 32 31 34 43 48 70 69
30 33 32 31 31 30 25 26 40 34 32 25 26 21 21 22 23 23 24 24 24 14 16 28 28 14 13 14 17 24 23 25 33 30 23 22 20 34 23 30 46 62 56 60 73
32 31 31 32 30 29 28 36 42 39 33 32 26 22 28 24 20 24 31 34 29 26 18 20 19 14 15 15 17 21 24 17 22 25 21 20 25 24 20 33 53 72 68 63 68
30 32 31 31 27 27 29 41 35 34 33 30 35 34 32 34 26 29 34 37 38 30 25 23 21 19 18 16 18 20 20 21 22 30 26 32 40 32 31 47 63 83 84 64 67
29 30 30 30 26 29 38 39 34 35 34 35 38 37 40 38 37 42 43 37 39 36 28 24 19 23 21 26 28 22 23 25 22 25 23 31 37 21 38 63 74 70 90 95 79
29 31 29 27 32 43 40 39 41 38 42 33 35 39 41 42 44 44 44 41 41 41 32 32 23 30 28 24 24 24 28 26 24 35 31 27 31 25 45 57 59 73 76 86 98
34 31 31 26 36 40 41 40 42 39 42 40 41 37 42 46 48 42 40 35 42 46 40 31 29 31 28 23 23 28 27 26 21 23 35 26 26 27 48 51 51 57 65 68 72
33 36 36 39 47 39 42 47 44 45 45 46 46 40 41 47 45 47 41 35 39 46 52 33 35 31 21 29 29 32 29 26 24 24 29 28 29 33 48 48 46 48 51 49 50
37 47 48 45 44 47 45 47 48 50 46 46 48 50 46 48 51 52 44 37 33 44 42 36 40 39 39 34 32 32 30 27 26 28 26 29 28 40 51 49 49 48 48 48 41
45 45 47 56 56 46 50 51 50 51 47 49 53 53 49 57 53 54 48 46 48 37 39 41 51 44 48 41 36 33 34 31 28 25 25 25 37 52 55 55 56 56 54 54 54
38 38 42 60 52 46 52 50 50 49 52 54 51 54 57 57 56 56 56 54 51 47 45 50 51 46 45 48 39 33 41 37 35 47 37 29 56 61 54 57 59 57 63 66 65

GFSSW_850_rhum_072.txt.gz
RH
50 44 40 36 33 31 28 21 8 6 6 9 8 6 5 4 5 6 7 10 15 17 38 61 49 64 70 61 67 69 60 49 46 54 68 69 68 76 67 58 55 58 59 59 71
42 38 34 30 26 24 25 25 19 7 6 8 8 7 6 5 4 5 5 4 16 19 50 37 42 62 58 54 60 58 59 44 38 39 57 81 79 68 66 62 57 63 60 67 72
37 33 29 26 22 18 18 20 21 14 6 8 9 8 7 5 15 14 20 4 15 24 41 30 38 48 45 48 53 49 51 38 37 41 47 63 76 79 63 61 57 60 64 67 69
28 23 20 18 16 14 13 14 17 17 9 8 10 9 8 6 10 30 18 5 14 38 38 33 39 40 35 42 48 55 44 43 38 39 43 46 52 59 70 65 64 67 65 63 64
19 17 16 14 12 12 12 12 13 15 11 8 10 10 9 26 10 20 8 10 18 45 33 30 30 25 28 30 42 53 41 39 36 32 34 43 50 53 59 68 70 66 63 62 60
22 16 14 13 15 16 14 13 12 13 11 9 11 11 23 14 26 13 20 28 39 33 25 25 23 23 22 29 32 36 37 33 28 25 30 42 45 48 57 61 65 63 60 58 58
35 32 17 14 19 20 17 10 11 12 11 10 12 13 37 14 42 36 48 37 32 26 24 24 27 26 24 26 31 33 32 27 28 28 34 44 54 55 61 66 66 60 57 57 58
38 36 30 14 17 21 14 9 12 12 11 11 14 19 23 16 45 43 44 42 29 26 22 29 31 25 23 29 29 28 26 29 30 30 38 42 57 57 68 77 71 59 55 59 61
38 37 35 20 16 19 9 14 20 14 12 17 28 50 21 23 44 34 30 34 27 26 26 27 30 24 27 22 22 23 27 26 35 32 37 40 46 55 68 78 73 79 60 59 61
36 36 36 23 18 14 13 32 25 23 20 20 43 41 32 27 38 37 32 28 25 24 21 22 24 22 21 17 21 22 25 25 25 37 33 37 42 56 63 65 72 86 63 58 58
36 35 34 22 18 19 22 34 42 56 46 21 18 20 24 27 37 34 35 30 26 23 18 17 20 19 17 17 18 16 22 25 22 30 27 24 20 40 52 59 67 82 63 59 56
35 33 31 20 23 27 28 29 27 28 20 24 27 23 25 22 23 29 31 29 24 18 15 18 19 14 16 20 26 23 24 24 20 18 21 17 17 33 36 48 59 74 74 59 56
25 24 22 18 26 25 28 29 22 24 20 18 21 19 19 20 17 29 28 22 23 16 17 16 13 15 25 29 29 24 22 24 22 19 18 22 24 39 41 43 58 61 58 56 54
21 18 20 26 29 26 29 21 20 22 16 15 14 14 18 17 12 23 25 20 19 23 16 13 13 17 24 28 24 24 20 22 24 22 22 18 26 32 46 48 64 65 57 52 54
26 25 18 26 25 28 24 21 20 28 21 13 13 16 16 14 11 19 22 18 20 21 22 17 15 18 23 24 23 22 22 23 22 23 21 17 21 38 35 47 70 69 64 53 57
30 24 24 24 23 23 22 22 24 20 26 15 11 14 13 9 10 15 17 15 17 18 21 18 15 16 20 23 24 23 23 21 21 20 26 17 18 24 29 33 31 48 59 57 51
32 32 28 28 30 28 25 23 19 23 17 18 13 12 10 10 11 13 14 15 20 27 27 20 22 18 20 27 24 24 22 24 24 23 21 14 18 31 26 29 35 37 36 54 52
31 30 30 31 29 27 26 19 30 25 23 17 16 11 13 12 15 15 17 19 15 15 20 21 25 19 19 23 26 25 20 18 26 21 17 17 19 26 25 38 49 50 39 37 52
29 31 33 29 27 23 23 25 33 30 26 24 15 15 16 15 15 18 20 20 20 17 19 20 20 12 13 12 14 23 24 13 16 15 14 16 27 20 24 42 52 65 48 43 49
32 35 32 29 25 28 20 35 30 28 26 23 23 22 18 17 16 16 20 26 24 21 18 16 23 15 14 12 13 16 15 21 17 22 22 17 24 27 36 54 53 72 86 58 53
30 27 31 26 28 24 26 30 27 28 28 27 27 26 28 24 21 25 28 27 28 25 21 16 17 18 15 18 18 16 17 17 14 15 17 21 24 23 45 60 62 67 77 86 94
29 23 30 27 24 25 27 29 31 26 28 27 27 28 30 29 29 31 32 31 33 30 23 20 14 18 19 18 17 18 18 17 18 24 18 17 28 31 40 55 66 66 67 70 74
29 27 30 27 26 29 29 28 29 27 29 27 29 29 30 34 38 31 29 30 32 28 28 24 21 24 22 18 19 19 19 18 17 16 20 17 29 34 42 50 59 57 59 62 63
27 22 25 30 33 27 27 30 31 32 30 31 30 28 29 32 31 36 31 27 29 31 45 28 22 29 20 20 17 24 20 18 18 18 19 19 34 40 40 43 46 49 51 53 57
31 28 38 25 27 25 25 28 31 33 30 30 30 30 32 35 34 36 30 27 26 31 29 25 28 26 26 22 20 19 19 18 20 20 21 23 27 38 39 39 40 41 43 50 54
28 27 30 32 37 26 31 33 33 34 32 35 36 32 32 40 38 39 33 32 34 27 27 24 34 29 30 26 24 23 22 21 18 19 20 20 34 34 41 43 42 44 45 47 49
35 34 32 38 28 25 32 32 34 36 40 38 37 38 40 41 40 39 37 35 35 33 32 31 31 34 26 29 24 23 21 20 20 23 21 23 36 38 38 42 44 42 47 54 54

GFSSW_850_rhum_075.txt.gz
RH
46 43 40 36 33 31 29 29 25 12 6 6 8 7 5 4 4 6 18 15 21 12 48 51 49 54 52 46 52 52 67 54 50 48 59 63 56 55 60 48 49 50 49 49 54
40 38 35 31 29 25 23 23 26 23 9 6 8 7 6 5 4 27 18 11 14 14 50 41 34 45 45 40 46 46 64 42 35 40 59 58 56 54 48 47 47 46 46 52 54
30 27 24 21 19 17 15 15 19 23 18 7 8 8 6 5 36 12 14 4 11 14 41 27 25 37 36 36 45 41 51 34 36 38 53 60 71 70 50 44 43 45 49 54 52
20 17 15 13 13 11 10 11 13 17 19 10 8 9 6 9 17 36 20 5 10 17 37 22 25 32 27 31 44 47 38 34 30 34 41 54 52 51 55 61 50 46 50 52 50
29 23 16 12 10 12 14 12 11 13 17 12 8 10 8 28 15 28 18 6 13 35 30 22 22 26 25 25 40 40 31 31 30 28 30 39 43 52 67 60 56 50 51 50 48
33 33 31 14 13 18 19 15 10 11 14 12 9 10 23 15 24 20 16 8 24 37 26 21 21 21 18 20 29 34 31 27 25 22 26 36 41 49 60 57 54 50 49 48 45
34 34 33 27 13 18 20 11 8 11 12 11 10 12 32 15 28 29 27 19 24 29 23 19 17 16 17 18 22 28 31 26 21 20 30 36 49 48 52 51 51 49 46 45 45
34 34 33 31 15 16 18 8 11 12 12 10 12 22 26 18 27 31 30 22 23 24 18 17 19 18 16 18 20 26 26 27 21 22 28 37 59 46 50 51 48 46 44 44 45
31 32 33 31 20 17 12 14 22 13 11 12 22 57 17 17 29 30 28 21 21 20 18 20 22 19 17 17 21 22 26 23 25 20 24 35 51 42 51 53 49 49 43 44 46
34 33 32 31 18 16 12 28 22 18 16 20 46 32 29 21 23 25 26 22 18 20 20 20 17 18 15 17 20 18 20 18 23 22 24 35 82 44 50 59 55 53 52 47 46
28 29 30 28 18 17 22 39 54 51 38 22 17 18 15 18 24 23 21 22 18 17 16 15 15 18 14 13 10 11 15 18 16 20 22 25 45 40 45 50 53 68 76 52 49
23 24 24 18 22 24 28 34 21 23 18 21 17 15 18 24 23 22 23 19 18 17 12 14 16 12 11 10 11 13 13 16 17 20 20 18 18 31 38 43 53 68 74 58 51
18 17 19 17 25 24 35 22 23 22 18 15 16 14 18 20 17 19 21 18 16 16 13 14 10 10 10 13 16 17 16 16 19 17 18 16 18 28 27 33 50 62 60 62 53
24 14 18 23 26 26 24 23 22 23 20 14 13 13 15 14 13 18 20 17 16 14 11 12 9 10 12 16 18 18 12 13 16 19 22 16 23 27 28 31 54 66 57 53 54
25 24 25 25 32 25 24 23 22 22 24 11 11 12 13 13 11 18 18 16 15 14 13 13 10 11 17 19 17 15 12 14 17 18 15 18 20 43 31 37 51 53 49 50 52
32 27 24 31 26 24 23 24 21 21 25 12 10 11 12 13 10 16 16 15 14 15 15 12 10 10 11 13 16 16 17 17 16 16 19 15 14 39 33 57 43 46 60 51 48
30 28 26 26 26 25 24 23 23 22 13 12 11 10 12 12 9 14 17 16 16 21 22 18 16 11 10 14 17 19 21 24 25 21 19 13 13 28 25 25 25 38 46 49 50
31 30 39 32 31 28 26 20 30 18 17 12 11 11 11 9 10 12 15 14 12 15 17 18 21 13 11 16 21 21 18 17 23 18 15 12 17 27 27 35 39 36 31 46 46
27 34 30 26 26 29 24 29 30 22 18 16 12 12 11 10 11 12 13 13 13 14 19 17 16 13 14 15 16 20 22 12 12 10 11 15 23 23 31 37 50 60 36 30 43
31 26 23 24 26 26 20 28 23 19 17 15 17 12 15 13 13 15 18 18 16 15 15 17 20 13 13 13 14 15 14 19 15 20 17 15 24 23 36 42 52 60 64 73 78
30 24 23 22 23 21 23 23 20 22 19 19 24 18 24 19 13 15 19 19 18 16 15 12 17 17 13 15 15 15 18 16 13 12 15 18 27 27 45 48 53 63 64 68 85
23 19 22 19 19 17 20 20 22 18 20 19 20 19 23 24 20 26 21 22 22 18 12 12 14 18 17 13 13 13 13 15 18 20 13 14 31 30 46 52 57 63 65 68 75
20 15 19 21 22 18 20 18 20 19 21 19 20 21 19 22 25 19 21 22 24 19 20 16 13 20 20 16 14 16 14 14 12 12 17 16 37 31 52 55 58 58 60 64 64
18 16 16 18 19 18 20 19 19 22 22 23 22 21 22 25 20 20 21 21 22 22 25 30 15 22 23 17 14 18 15 14 14 16 16 17 41 37 42 50 51 53 56 57 60
19 17 24 19 16 17 17 18 20 20 19 21 23 23 23 25 24 24 20 21 21 23 26 18 23 20 18 15 14 15 16 14 16 14 16 31 36 36 36 37 44 48 49 52 55
21 20 17 20 21 17 24 21 21 24 24 24 23 20 22 28 29 26 22 21 21 21 21 16 25 23 23 19 17 17 15 15 14 15 16 23 36 30 33 37 39 42 45 48 51
30 29 21 23 19 17 20 21 23 26 27 26 28 26 26 29 28 28 27 26 26 28 24 26 19 25 25 21 21 24 17 15 13 13 17 24 32 32 33 35 36 39 45 45 46